JST810 YSSY-YBBN

Flight info

Callsign JST810
Flight time 1h 11m
Altitude 37000
Route TESAT H252 OLSEM Y193 BANDA H252 BN
Aircraft A321/M-SDE3FGHIRWY/LB1

Departure

Time 2026-05-06 00:25
Airport Sydney Kingsford Smith International Airport (YSSY)

Arrival

Time 2026-05-06 01:36
Airport Brisbane International Airport (YBBN)
Time Latitude Longitude Altitude Speed Heading
2026-05-06 00:03 -33.93410 151.17708 30 ft 0 kts 99°
2026-05-06 00:04 -33.93406 151.17681 30 ft 3 kts 100°
2026-05-06 00:05 -33.93404 151.17630 30 ft 3 kts 83°
2026-05-06 00:05 -33.93402 151.17605 30 ft 3 kts 130°
2026-05-06 00:05 -33.93385 151.17592 30 ft 3 kts 165°
2026-05-06 00:06 -33.93363 151.17586 30 ft 2 kts 170°
2026-05-06 00:06 -33.93340 151.17581 30 ft 3 kts 170°
2026-05-06 00:06 -33.93317 151.17576 30 ft 3 kts 169°
2026-05-06 00:06 -33.93293 151.17570 30 ft 3 kts 169°
2026-05-06 00:07 -33.93290 151.17569 30 ft 0 kts 169°
2026-05-06 00:11 -33.93291 151.17570 30 ft 1 kts 169°
2026-05-06 00:11 -33.93301 151.17572 30 ft 3 kts 169°
2026-05-06 00:11 -33.93326 151.17576 30 ft 5 kts 175°
2026-05-06 00:11 -33.93361 151.17563 30 ft 6 kts 217°
2026-05-06 00:12 -33.93398 151.17518 30 ft 9 kts 210°
2026-05-06 00:12 -33.93466 151.17502 30 ft 11 kts 180°
2026-05-06 00:12 -33.93551 151.17520 29 ft 14 kts 168°
2026-05-06 00:12 -33.93650 151.17545 29 ft 15 kts 168°
2026-05-06 00:13 -33.93757 151.17573 29 ft 16 kts 168°
2026-05-06 00:13 -33.93862 151.17600 29 ft 16 kts 167°
2026-05-06 00:13 -33.93959 151.17627 29 ft 15 kts 167°
2026-05-06 00:13 -33.94066 151.17655 28 ft 17 kts 167°
2026-05-06 00:14 -33.94182 151.17688 29 ft 18 kts 165°
2026-05-06 00:14 -33.94293 151.17723 30 ft 14 kts 165°
2026-05-06 00:14 -33.94392 151.17754 30 ft 16 kts 165°
2026-05-06 00:14 -33.94503 151.17787 30 ft 17 kts 166°
2026-05-06 00:15 -33.94625 151.17821 30 ft 19 kts 167°
2026-05-06 00:15 -33.94757 151.17855 30 ft 20 kts 168°
2026-05-06 00:15 -33.94876 151.17885 30 ft 16 kts 168°
2026-05-06 00:15 -33.94992 151.17915 30 ft 17 kts 168°
2026-05-06 00:16 -33.95086 151.17939 30 ft 12 kts 168°
2026-05-06 00:16 -33.95162 151.17966 30 ft 11 kts 146°
2026-05-06 00:16 -33.95181 151.18057 31 ft 13 kts 81°
2026-05-06 00:16 -33.95161 151.18169 30 ft 15 kts 77°
2026-05-06 00:17 -33.95141 151.18282 30 ft 14 kts 78°
2026-05-06 00:17 -33.95119 151.18403 30 ft 15 kts 78°
2026-05-06 00:17 -33.95112 151.18482 30 ft 8 kts 96°
2026-05-06 00:17 -33.95133 151.18556 30 ft 10 kts 118°
2026-05-06 00:18 -33.95188 151.18622 30 ft 12 kts 141°
2026-05-06 00:18 -33.95261 151.18688 30 ft 14 kts 150°
2026-05-06 00:18 -33.95359 151.18726 30 ft 16 kts 170°
2026-05-06 00:18 -33.95471 151.18757 30 ft 17 kts 165°
2026-05-06 00:19 -33.95594 151.18793 30 ft 19 kts 167°
2026-05-06 00:19 -33.95724 151.18825 30 ft 18 kts 168°
2026-05-06 00:19 -33.95827 151.18852 30 ft 11 kts 168°
2026-05-06 00:19 -33.95911 151.18873 30 ft 13 kts 168°
2026-05-06 00:20 -33.96006 151.18897 30 ft 15 kts 168°
2026-05-06 00:20 -33.96112 151.18926 30 ft 17 kts 167°
2026-05-06 00:20 -33.96230 151.18956 30 ft 18 kts 168°
2026-05-06 00:20 -33.96357 151.18989 30 ft 19 kts 168°
2026-05-06 00:21 -33.96493 151.19024 30 ft 21 kts 168°
2026-05-06 00:21 -33.96628 151.19059 30 ft 14 kts 168°
2026-05-06 00:21 -33.96702 151.19075 30 ft 10 kts 178°
2026-05-06 00:21 -33.96776 151.19064 30 ft 11 kts 186°
2026-05-06 00:22 -33.96861 151.19075 30 ft 13 kts 168°
2026-05-06 00:22 -33.96957 151.19100 30 ft 15 kts 168°
2026-05-06 00:22 -33.97046 151.19123 30 ft 10 kts 168°
2026-05-06 00:22 -33.97103 151.19142 30 ft 9 kts 149°
2026-05-06 00:23 -33.97124 151.19211 30 ft 10 kts 82°
2026-05-06 00:23 -33.97116 151.19252 29 ft 0 kts 77°
2026-05-06 00:23 -33.97115 151.19259 29 ft 3 kts 77°
2026-05-06 00:24 -33.97100 151.19336 27 ft 9 kts 77°
2026-05-06 00:24 -33.97057 151.19370 25 ft 9 kts 354°
2026-05-06 00:24 -33.96928 151.19338 24 ft 43 kts 348°
2026-05-06 00:24 -33.96362 151.19191 28 ft 120 kts 348°
2026-05-06 00:25 -33.95382 151.18933 172 ft 161 kts 346°
2026-05-06 00:25 -33.94296 151.18696 935 ft 160 kts 358°
2026-05-06 00:25 -33.93192 151.18972 1669 ft 165 kts 21°
2026-05-06 00:25 -33.92173 151.19728 2137 ft 182 kts 36°
2026-05-06 00:26 -33.91096 151.20690 2464 ft 203 kts 36°
2026-05-06 00:26 -33.89908 151.21707 2871 ft 217 kts 35°
2026-05-06 00:26 -33.88624 151.22809 3177 ft 239 kts 36°
2026-05-06 00:26 -33.87197 151.24045 3583 ft 263 kts 37°
2026-05-06 00:27 -33.85705 151.25366 4362 ft 268 kts 37°
2026-05-06 00:27 -33.84223 151.26733 5280 ft 269 kts 43°
2026-05-06 00:27 -33.83134 151.28570 6056 ft 274 kts 69°
2026-05-06 00:27 -33.82618 151.30774 6923 ft 275 kts 75°
2026-05-06 00:28 -33.82094 151.32968 7739 ft 278 kts 73°
2026-05-06 00:28 -33.81491 151.35183 8598 ft 279 kts 67°
2026-05-06 00:28 -33.80546 151.37230 9378 ft 283 kts 52°
2026-05-06 00:28 -33.79280 151.39069 10106 ft 288 kts 49°
2026-05-06 00:29 -33.77982 151.40959 10655 ft 302 kts 49°
2026-05-06 00:29 -33.76599 151.42986 10887 ft 325 kts 49°
2026-05-06 00:29 -33.75118 151.45169 11078 ft 349 kts 50°
2026-05-06 00:29 -33.73544 151.47501 11311 ft 368 kts 50°
2026-05-06 00:30 -33.71916 151.49919 11903 ft 375 kts 50°
2026-05-06 00:30 -33.70266 151.52373 12573 ft 380 kts 50°
2026-05-06 00:30 -33.68597 151.54853 13251 ft 384 kts 50°
2026-05-06 00:30 -33.66908 151.57359 13923 ft 388 kts 50°
2026-05-06 00:31 -33.65161 151.59784 14578 ft 391 kts 43°
2026-05-06 00:31 -33.63072 151.61875 15228 ft 392 kts 32°
2026-05-06 00:31 -33.60779 151.63676 15889 ft 395 kts 31°
2026-05-06 00:31 -33.58466 151.65481 16546 ft 399 kts 31°
2026-05-06 00:32 -33.56132 151.67305 17189 ft 402 kts 31°
2026-05-06 00:32 -33.53777 151.69148 17811 ft 406 kts 31°
2026-05-06 00:32 -33.51406 151.70999 18429 ft 408 kts 30°
2026-05-06 00:32 -33.48884 151.72566 18999 ft 409 kts 20°
2026-05-06 00:33 -33.46178 151.73629 19560 ft 410 kts 12°
2026-05-06 00:33 -33.43413 151.74521 20111 ft 413 kts 12°
2026-05-06 00:33 -33.40664 151.75401 20632 ft 416 kts 12°
2026-05-06 00:33 -33.37855 151.76298 21147 ft 419 kts 12°
2026-05-06 00:34 -33.35026 151.77209 21648 ft 422 kts 12°
2026-05-06 00:34 -33.32181 151.78132 22121 ft 425 kts 12°
2026-05-06 00:34 -33.29312 151.79067 22593 ft 428 kts 12°
2026-05-06 00:34 -33.26431 151.80004 23048 ft 431 kts 12°
2026-05-06 00:35 -33.23523 151.80946 23496 ft 434 kts 12°
2026-05-06 00:35 -33.20598 151.81887 23937 ft 436 kts 12°
2026-05-06 00:35 -33.17694 151.82816 24361 ft 439 kts 11°
2026-05-06 00:35 -33.14731 151.83765 24795 ft 442 kts 11°
2026-05-06 00:36 -33.11753 151.84717 25213 ft 445 kts 11°
2026-05-06 00:36 -33.08755 151.85677 25622 ft 447 kts 11°
2026-05-06 00:36 -33.05744 151.86646 26018 ft 450 kts 11°
2026-05-06 00:36 -33.02718 151.87626 26401 ft 452 kts 11°
2026-05-06 00:37 -32.99674 151.88609 26774 ft 454 kts 11°
2026-05-06 00:37 -32.96618 151.89593 27128 ft 456 kts 11°
2026-05-06 00:37 -32.93585 151.90565 27484 ft 459 kts 10°
2026-05-06 00:37 -32.90494 151.91554 27853 ft 461 kts 10°
2026-05-06 00:38 -32.87392 151.92547 28209 ft 463 kts 10°
2026-05-06 00:38 -32.84275 151.93544 28588 ft 464 kts 10°
2026-05-06 00:38 -32.81165 151.94540 29072 ft 462 kts
2026-05-06 00:38 -32.78061 151.95533 29539 ft 461 kts
2026-05-06 00:39 -32.74971 151.96517 29987 ft 460 kts
2026-05-06 00:39 -32.71885 151.97494 30438 ft 458 kts
2026-05-06 00:39 -32.68811 151.98471 30878 ft 457 kts
2026-05-06 00:39 -32.65742 151.99447 31310 ft 456 kts
2026-05-06 00:40 -32.62727 152.00406 31730 ft 455 kts
2026-05-06 00:40 -32.59673 152.01376 32150 ft 454 kts
2026-05-06 00:40 -32.56632 152.02344 32591 ft 451 kts
2026-05-06 00:40 -32.53605 152.03305 33016 ft 450 kts
2026-05-06 00:41 -32.50586 152.04263 33420 ft 448 kts
2026-05-06 00:41 -32.47573 152.05221 33804 ft 447 kts
2026-05-06 00:41 -32.44573 152.06174 34177 ft 446 kts
2026-05-06 00:41 -32.41575 152.07124 34518 ft 446 kts
2026-05-06 00:42 -32.38584 152.08066 34879 ft 444 kts
2026-05-06 00:42 -32.35638 152.08992 35215 ft 444 kts
2026-05-06 00:42 -32.32656 152.09931 35547 ft 443 kts
2026-05-06 00:42 -32.29676 152.10872 35878 ft 443 kts
2026-05-06 00:43 -32.26699 152.11814 36200 ft 443 kts
2026-05-06 00:43 -32.23722 152.12753 36493 ft 443 kts
2026-05-06 00:43 -32.20750 152.13690 36775 ft 442 kts
2026-05-06 00:43 -32.17775 152.14625 37101 ft 441 kts
2026-05-06 00:44 -32.14815 152.15556 37176 ft 440 kts
2026-05-06 00:44 -32.08964 152.17396 37194 ft 437 kts
2026-05-06 00:45 -32.03096 152.19238 37183 ft 436 kts
2026-05-06 00:45 -31.97230 152.21075 37184 ft 436 kts
2026-05-06 00:46 -31.91360 152.22910 37181 ft 436 kts
2026-05-06 00:46 -31.85529 152.24733 37191 ft 437 kts
2026-05-06 00:47 -31.79653 152.26563 37196 ft 437 kts
2026-05-06 00:47 -31.73770 152.28396 37198 ft 438 kts
2026-05-06 00:48 -31.67879 152.30232 37199 ft 438 kts
2026-05-06 00:48 -31.62025 152.32055 37200 ft 438 kts
2026-05-06 00:49 -31.56130 152.33884 37201 ft 438 kts
2026-05-06 00:49 -31.50230 152.35710 37197 ft 438 kts
2026-05-06 00:50 -31.44327 152.37540 37199 ft 438 kts
2026-05-06 00:50 -31.40832 152.38620 37177 ft 438 kts
2026-05-06 00:51 -31.34915 152.40448 37187 ft 439 kts
2026-05-06 00:51 -31.29009 152.42280 37184 ft 439 kts
2026-05-06 00:52 -31.23092 152.44097 37184 ft 439 kts
2026-05-06 00:52 -31.17211 152.45902 37182 ft 440 kts
2026-05-06 00:53 -31.11281 152.47720 37193 ft 441 kts
2026-05-06 00:53 -31.05340 152.49554 37198 ft 442 kts
2026-05-06 00:54 -30.99393 152.51396 37199 ft 442 kts
2026-05-06 00:54 -30.93486 152.53191 37200 ft 442 kts
2026-05-06 00:55 -30.87537 152.55007 37194 ft 443 kts
2026-05-06 00:55 -30.81577 152.56839 37195 ft 443 kts
2026-05-06 00:56 -30.75623 152.58773 37199 ft 446 kts
2026-05-06 00:56 -30.69685 152.60968 37196 ft 448 kts
2026-05-06 00:57 -30.63788 152.63186 37204 ft 448 kts
2026-05-06 00:57 -30.57846 152.65366 37206 ft 448 kts
2026-05-06 00:58 -30.51893 152.67514 37209 ft 448 kts
2026-05-06 00:58 -30.45933 152.69649 37214 ft 449 kts
2026-05-06 00:59 -30.40005 152.71780 37210 ft 449 kts
2026-05-06 00:59 -30.34043 152.73929 37210 ft 449 kts
2026-05-06 01:00 -30.28073 152.76076 37213 ft 449 kts
2026-05-06 01:00 -30.22105 152.78227 37212 ft 449 kts
2026-05-06 01:01 -30.16176 152.80353 37213 ft 449 kts
2026-05-06 01:01 -30.10207 152.82492 37213 ft 449 kts
2026-05-06 01:02 -30.04235 152.84635 37213 ft 449 kts
2026-05-06 01:02 -29.98265 152.86777 37212 ft 450 kts
2026-05-06 01:03 -29.92362 152.88879 37207 ft 450 kts
2026-05-06 01:03 -29.86373 152.91011 37206 ft 451 kts
2026-05-06 01:04 -29.80378 152.93148 37199 ft 451 kts
2026-05-06 01:04 -29.74419 152.95270 37201 ft 451 kts
2026-05-06 01:05 -29.68415 152.97403 37200 ft 452 kts
2026-05-06 01:05 -29.62411 152.99531 37201 ft 452 kts
2026-05-06 01:06 -29.56402 153.01663 37199 ft 452 kts
2026-05-06 01:06 -29.50431 153.03786 37198 ft 452 kts
2026-05-06 01:07 -29.44419 153.05904 37195 ft 452 kts
2026-05-06 01:07 -29.38414 153.08020 37188 ft 452 kts
2026-05-06 01:08 -29.32408 153.10145 37186 ft 452 kts
2026-05-06 01:08 -29.26435 153.12251 37187 ft 452 kts
2026-05-06 01:09 -29.20422 153.14371 37181 ft 452 kts
2026-05-06 01:09 -29.14410 153.16482 37182 ft 452 kts
2026-05-06 01:10 -29.08397 153.18585 37174 ft 452 kts
2026-05-06 01:10 -29.02428 153.20677 37171 ft 452 kts
2026-05-06 01:11 -28.96423 153.22784 37166 ft 452 kts
2026-05-06 01:11 -28.90413 153.24883 37162 ft 451 kts
2026-05-06 01:12 -28.84405 153.26977 37160 ft 451 kts
2026-05-06 01:12 -28.78444 153.29065 37160 ft 451 kts
2026-05-06 01:13 -28.72444 153.31151 36906 ft 450 kts
2026-05-06 01:13 -28.69453 153.32191 36661 ft 449 kts
2026-05-06 01:13 -28.66462 153.33233 36418 ft 449 kts
2026-05-06 01:13 -28.63474 153.34276 36161 ft 450 kts
2026-05-06 01:14 -28.57458 153.36364 35078 ft 456 kts
2026-05-06 01:14 -28.54456 153.37401 34321 ft 458 kts
2026-05-06 01:14 -28.51393 153.38462 33444 ft 463 kts
2026-05-06 01:15 -28.48296 153.39535 32521 ft 467 kts
2026-05-06 01:15 -28.45177 153.40615 31596 ft 470 kts
2026-05-06 01:15 -28.42046 153.41698 30639 ft 472 kts
2026-05-06 01:15 -28.38899 153.42790 29558 ft 471 kts
2026-05-06 01:16 -28.35776 153.43882 28491 ft 469 kts
2026-05-06 01:16 -28.32705 153.44954 27597 ft 467 kts
2026-05-06 01:16 -28.29619 153.46026 26979 ft 461 kts
2026-05-06 01:16 -28.26565 153.47082 26264 ft 457 kts
2026-05-06 01:17 -28.23538 153.48128 25569 ft 452 kts
2026-05-06 01:17 -28.20542 153.49151 24884 ft 446 kts
2026-05-06 01:17 -28.17552 153.49789 24211 ft 431 kts 358°
2026-05-06 01:17 -28.14608 153.49833 23553 ft 417 kts 349°
2026-05-06 01:18 -28.11780 153.49357 22901 ft 407 kts 343°
2026-05-06 01:18 -28.09016 153.48767 22257 ft 402 kts 344°
2026-05-06 01:18 -28.06324 153.48201 21635 ft 397 kts 344°
2026-05-06 01:18 -28.03626 153.47642 21011 ft 392 kts 345°
2026-05-06 01:19 -28.00959 153.47096 20417 ft 387 kts 345°
2026-05-06 01:19 -27.98322 153.46556 19836 ft 383 kts 345°
2026-05-06 01:19 -27.95714 153.46024 19284 ft 379 kts 345°
2026-05-06 01:19 -27.93129 153.45495 18743 ft 376 kts 346°
2026-05-06 01:20 -27.90572 153.44968 18226 ft 371 kts 346°
2026-05-06 01:20 -27.88048 153.44446 17706 ft 367 kts 346°
2026-05-06 01:20 -27.85582 153.43935 17191 ft 363 kts 346°
2026-05-06 01:20 -27.83115 153.43422 16644 ft 359 kts 346°
2026-05-06 01:21 -27.80670 153.42915 16103 ft 356 kts 346°
2026-05-06 01:21 -27.78247 153.42414 15543 ft 352 kts 347°
2026-05-06 01:21 -27.75847 153.41918 14998 ft 349 kts 347°
2026-05-06 01:21 -27.73464 153.41427 14429 ft 347 kts 347°
2026-05-06 01:22 -27.71100 153.40942 13869 ft 344 kts 347°
2026-05-06 01:22 -27.68750 153.40456 13300 ft 342 kts 347°
2026-05-06 01:22 -27.66415 153.39973 12726 ft 341 kts 348°
2026-05-06 01:22 -27.64114 153.39552 12179 ft 340 kts 353°
2026-05-06 01:23 -27.61725 153.39511 11383 ft 351 kts
2026-05-06 01:23 -27.59267 153.39620 10736 ft 351 kts
2026-05-06 01:23 -27.56881 153.39738 10605 ft 335 kts
2026-05-06 01:23 -27.54602 153.39855 10478 ft 321 kts
2026-05-06 01:24 -27.52418 153.39965 10352 ft 308 kts
2026-05-06 01:24 -27.50318 153.40066 10180 ft 298 kts
2026-05-06 01:24 -27.48267 153.40161 9920 ft 292 kts
2026-05-06 01:24 -27.46245 153.40253 9805 ft 291 kts
2026-05-06 01:25 -27.44248 153.40345 9676 ft 291 kts
2026-05-06 01:25 -27.42224 153.40438 9564 ft 291 kts
2026-05-06 01:25 -27.40200 153.40528 9362 ft 290 kts
2026-05-06 01:25 -27.38185 153.40616 9135 ft 290 kts
2026-05-06 01:26 -27.36173 153.40708 8901 ft 288 kts
2026-05-06 01:26 -27.34174 153.40800 8605 ft 287 kts
2026-05-06 01:26 -27.32185 153.40890 8307 ft 286 kts
2026-05-06 01:26 -27.30203 153.40980 8017 ft 285 kts
2026-05-06 01:27 -27.28254 153.41071 7740 ft 282 kts
2026-05-06 01:27 -27.26292 153.41165 7448 ft 283 kts
2026-05-06 01:27 -27.24332 153.41253 7166 ft 282 kts
2026-05-06 01:27 -27.22376 153.41339 6882 ft 280 kts
2026-05-06 01:28 -27.20433 153.41182 6604 ft 278 kts 348°
2026-05-06 01:28 -27.18617 153.40428 6327 ft 280 kts 331°
2026-05-06 01:28 -27.17046 153.39146 6018 ft 280 kts 320°
2026-05-06 01:28 -27.15562 153.37744 5746 ft 276 kts 320°
2026-05-06 01:29 -27.14188 153.36346 5625 ft 266 kts 309°
2026-05-06 01:29 -27.13362 153.34571 5565 ft 251 kts 283°
2026-05-06 01:29 -27.13261 153.32684 5410 ft 238 kts 261°
2026-05-06 01:29 -27.13784 153.30976 5165 ft 226 kts 242°
2026-05-06 01:30 -27.14445 153.29440 4953 ft 211 kts 243°
2026-05-06 01:30 -27.15072 153.27974 4765 ft 207 kts 242°
2026-05-06 01:30 -27.15722 153.26545 4585 ft 204 kts 234°
2026-05-06 01:30 -27.16673 153.25380 4475 ft 202 kts 216°
2026-05-06 01:31 -27.17862 153.24610 4272 ft 199 kts 205°
2026-05-06 01:31 -27.19095 153.23911 4029 ft 198 kts 204°
2026-05-06 01:31 -27.20322 153.23212 3776 ft 197 kts 205°
2026-05-06 01:31 -27.21542 153.22516 3495 ft 196 kts 204°
2026-05-06 01:32 -27.22755 153.21825 3223 ft 195 kts 204°
2026-05-06 01:32 -27.23962 153.21137 2983 ft 194 kts 204°
2026-05-06 01:32 -27.25164 153.20452 2720 ft 193 kts 204°
2026-05-06 01:32 -27.26361 153.19771 2452 ft 192 kts 204°
2026-05-06 01:33 -27.27554 153.19091 2199 ft 192 kts 204°
2026-05-06 01:33 -27.28729 153.18419 1940 ft 192 kts 204°
2026-05-06 01:33 -27.29873 153.17765 1711 ft 173 kts 204°
2026-05-06 01:33 -27.30871 153.17195 1483 ft 152 kts 203°
2026-05-06 01:34 -27.31788 153.16673 1284 ft 145 kts 204°
2026-05-06 01:34 -27.32677 153.16166 1093 ft 142 kts 204°
2026-05-06 01:34 -27.33553 153.15666 910 ft 141 kts 204°
2026-05-06 01:34 -27.34425 153.15168 723 ft 140 kts 204°
2026-05-06 01:35 -27.35293 153.14674 535 ft 140 kts 204°
2026-05-06 01:35 -27.36150 153.14187 359 ft 140 kts 204°
2026-05-06 01:35 -27.37016 153.13693 174 ft 139 kts 204°
2026-05-06 01:35 -27.37876 153.13197 32 ft 133 kts 205°
2026-05-06 01:36 -27.38593 153.12787 24 ft 91 kts 207°
2026-05-06 01:36 -27.39041 153.12533 20 ft 62 kts 207°
2026-05-06 01:36 -27.39339 153.12359 20 ft 37 kts 207°
2026-05-06 01:36 -27.39511 153.12261 21 ft 17 kts 207°
2026-05-06 01:37 -27.39576 153.12198 23 ft 13 kts 246°
2026-05-06 01:37 -27.39568 153.12094 21 ft 14 kts 295°
2026-05-06 01:37 -27.39531 153.12013 22 ft 9 kts 297°
2026-05-06 01:37 -27.39505 153.11956 22 ft 7 kts 296°
2026-05-06 01:38 -27.39514 153.11900 22 ft 9 kts 230°
2026-05-06 01:38 -27.39572 153.11862 22 ft 10 kts 207°
2026-05-06 01:38 -27.39603 153.11844 22 ft 0 kts 207°
2026-05-06 01:39 -27.39604 153.11843 22 ft 0 kts 208°
2026-05-06 01:39 -27.39599 153.11846 22 ft 3 kts 208°
2026-05-06 01:39 -27.39566 153.11866 24 ft 8 kts 208°
2026-05-06 01:40 -27.39522 153.11897 22 ft 3 kts 229°
2026-05-06 01:40 -27.39514 153.11910 22 ft 4 kts 242°
2026-05-06 01:40 -27.39505 153.11937 22 ft 0 kts 262°
2026-05-06 01:40 -27.39503 153.11929 22 ft 2 kts 284°
2026-05-06 01:41 -27.39486 153.11919 22 ft 4 kts 350°
2026-05-06 01:41 -27.39422 153.11948 22 ft 8 kts 26°
2026-05-06 01:41 -27.39367 153.11979 22 ft 10 kts 27°
2026-05-06 01:42 -27.39298 153.12018 22 ft 12 kts 27°
2026-05-06 01:42 -27.39215 153.12066 22 ft 15 kts 27°
2026-05-06 01:42 -27.39118 153.12122 22 ft 17 kts 27°
2026-05-06 01:42 -27.39012 153.12182 22 ft 15 kts 27°
2026-05-06 01:43 -27.38924 153.12232 22 ft 15 kts 27°
2026-05-06 01:43 -27.38857 153.12270 22 ft 9 kts 27°
2026-05-06 01:43 -27.38792 153.12308 21 ft 12 kts 27°
2026-05-06 01:43 -27.38715 153.12351 22 ft 12 kts 27°
2026-05-06 01:44 -27.38651 153.12388 22 ft 8 kts 27°
2026-05-06 01:44 -27.38609 153.12409 22 ft 7 kts 14°
2026-05-06 01:44 -27.38560 153.12391 22 ft 9 kts 317°
2026-05-06 01:44 -27.38518 153.12329 21 ft 11 kts 301°
2026-05-06 01:45 -27.38490 153.12273 21 ft 4 kts 298°
2026-05-06 01:45 -27.38488 153.12240 21 ft 5 kts 249°
2026-05-06 01:45 -27.38517 153.12204 23 ft 7 kts 225°
2026-05-06 01:45 -27.38538 153.12173 22 ft 3 kts 239°
2026-05-06 01:46 -27.38538 153.12146 22 ft 5 kts 280°
2026-05-06 01:46 -27.38533 153.12125 23 ft 0 kts 287°
2026-05-06 01:46 -27.38533 153.12128 23 ft 2 kts 292°
2026-05-06 01:47 -27.38538 153.12141 22 ft 1 kts 289°
2026-05-06 01:47 -27.38535 153.12130 23 ft 1 kts 289°
2026-05-06 01:47 -27.38533 153.12126 22 ft 0 kts 289°